SP1JT-10 Weather Reports


time (UTC)temp
C
wind
direction
speed
KPH
gust
KPH
rain 1hr
cm
rain 24hr
cm
rain mn
cm
humidity
%
barometer
mb
20260507060913 5 0.0 0.0 0.00 0.00 0.00 93 1015.2
20260507055814 5 0.0 0.0 0.00 0.00 0.00 94 1015.1
20260507055731 5 0.0 0.0 0.00 0.00 0.00 94 1015.1
20260507055414 5 0.0 0.0 0.00 0.00 0.00 94 1015.0
20260507055314 5 0.0 0.0 0.00 0.00 0.00 94 1015.1
20260507055213 5 0.0 0.0 0.00 0.00 0.00 95 1015.0
20260507055113 5 0.0 0.0 0.00 0.00 0.00 95 1015.0
20260507055022 5 0.0 0.0 0.00 0.00 0.00 95 1015.0
20260507053756 5 0.0 0.0 0.00 0.00 0.00 95 1014.8
20260507051913 5 0.0 0.0 0.00 0.00 0.00 96 1014.9
20260507050914 5 0.0 0.0 0.00 0.00 0.00 97 1014.7
20260507045913 5 0.0 0.0 0.00 0.00 0.00 97 1014.8
20260507045813 5 0.0 0.0 0.00 0.00 0.00 97 1014.8
20260507045614 5 0.0 0.0 0.00 0.00 0.00 97 1014.7
20260507045512 5 0.0 0.0 0.00 0.00 0.00 97 1014.8
20260507045412 5 0.0 0.0 0.00 0.00 0.00 97 1014.8
20260507045312 5 0.0 0.0 0.00 0.00 0.00 98 1014.7
20260507045211 5 0.0 0.0 0.00 0.00 0.00 99 1014.8
20260507045113 5 0.0 0.0 0.00 0.00 0.00 98 1014.7
20260507045013 5 0.0 0.0 0.00 0.00 0.00 98 1014.7
20260507044013 5 0.0 0.0 0.00 0.00 0.00 98 1014.5
20260507043013 5 0.0 0.0 0.00 0.00 0.00 99 1014.2
20260507042014 5 0.0 0.0 0.00 0.00 0.00 98 1014.1
20260507041033 5 0.0 0.0 0.00 0.00 0.00 10 1014.0
20260507035915 5 0.0 0.0 0.00 0.00 0.00 10 1014.0
20260507034914 5 0.0 0.0 0.00 0.00 0.00 10 1013.7
20260507033913 5 0.0 0.0 0.00 0.00 0.00 10 1013.7
20260507031916 5 0.0 0.0 0.00 0.00 0.00 10 1013.4
20260507030915 4 0.0 0.0 0.00 0.00 0.00 10 1013.5
20260507025914 4 0.0 0.0 0.00 0.00 0.00 10 1013.5
20260507024913 4 0.0 0.0 0.00 0.00 0.00 10 1013.5
20260507023912 4 0.0 0.0 0.00 0.00 0.00 10 1013.5
20260507021913 4 0.0 0.0 0.00 0.00 0.00 10 1013.2
20260507020913 4 0.0 0.0 0.00 0.00 0.00 10 1013.1
20260507015912 4 0.0 0.0 0.00 0.00 0.00 10 1013.1
20260507013914 4 0.0 0.0 0.00 0.00 0.00 10 1012.9
20260507011915 5 0.0 0.0 0.00 0.00 0.00 10 1013.0
20260507010913 5 0.0 0.0 0.00 0.00 0.00 10 1012.9
20260507004913 5 0.0 0.0 0.00 0.00 0.00 10 1012.8
20260507003914 5 0.0 0.0 0.00 0.00 0.00 10 1012.5
20260507002914 5 0.0 0.0 0.00 0.00 0.00 99 1012.4
20260507001913 5 0.0 0.0 0.00 0.00 0.00 10 1012.6
20260506235914 5 0.0 0.0 0.00 0.00 0.00 10 1012.8
20260506234913 5 0.0 0.0 0.00 0.00 0.00 10 1012.7
20260506233914 5 0.0 0.0 0.00 0.00 0.00 10 1012.5
20260506232914 5 0.0 0.0 0.00 0.00 0.00 99 1012.4
20260506231914 5 0.0 0.0 0.00 0.00 0.00 10 1012.4
20260506230914 5 0.0 0.0 0.00 0.00 0.00 99 1012.4
20260506225913 5 0.0 0.0 0.00 0.00 0.00 99 1012.2
20260506224913 5 0.0 0.0 0.00 0.00 0.00 98 1012.2
20260506223914 5 0.0 0.0 0.00 0.00 0.00 10 1012.3
20260506222914 5 0.0 0.0 0.00 0.00 0.00 99 1012.3
20260506221914 5 0.0 0.0 0.00 0.00 0.00 99 1012.3
20260506215914 5 0.0 0.0 0.00 0.00 0.00 10 1012.2
20260506214913 5 0.0 0.0 0.00 0.00 0.00 99 1012.2
20260506212913 5 0.0 0.0 0.00 0.00 0.00 99 1012.1
20260506211913 5 0.0 0.0 0.00 0.00 0.00 98 1012.0
20260506210914 5 0.0 0.0 0.00 0.00 0.00 99 1011.7
20260506205913 5 0.0 0.0 0.00 0.00 0.00 99 1011.7
20260506204915 5 0.0 0.0 0.00 0.00 0.00 98 1011.6
20260506203913 5 0.0 0.0 0.00 0.00 0.00 98 1011.7
20260506201912 5 0.0 0.0 0.00 0.00 0.00 98 1011.5
20260506195912 5 0.0 0.0 0.00 0.00 0.00 99 1011.3
20260506195714 5 0.0 0.0 0.00 0.00 0.00 98 1011.3
20260506195513 5 0.0 0.0 0.00 0.00 0.00 97 1011.3
20260506195412 5 0.0 0.0 0.00 0.00 0.00 99 1011.5
20260506194214 5 0.0 0.0 0.00 0.00 0.00 98 1011.4
20260506193225 5 0.0 0.0 0.00 0.00 0.00 97 1011.3
20260506192018 6 0.0 0.0 0.00 0.00 0.00 97 1010.3
20260506175914 6 0.0 0.0 0.00 0.00 0.00 97 1010.3
20260506174913 6 0.0 0.0 0.00 0.00 0.00 97 1010.4
20260506173913 7 0.0 0.0 0.00 0.00 0.00 97 1010.3
20260506172913 7 0.0 0.0 0.00 0.00 0.00 98 1010.3
20260506171913 7 0.0 0.0 0.00 0.00 0.00 98 1010.3
20260506170912 7 0.0 0.0 0.00 0.00 0.00 99 1010.0
20260506165913 7 0.0 0.0 0.00 0.00 0.00 98 1010.0
20260506164913 7 0.0 0.0 0.00 0.00 0.00 99 1010.0
20260506163913 7 0.0 0.0 0.00 0.00 0.00 98 1009.9
20260506162914 7 0.0 0.0 0.00 0.00 0.00 97 1010.0
20260506161913 7 0.0 0.0 0.00 0.00 0.00 96 1010.0
20260506160912 7 0.0 0.0 0.00 0.00 0.00 96 1009.8
20260506154913 7 0.0 0.0 0.00 0.00 0.00 96 1009.7
20260506153914 7 0.0 0.0 0.00 0.00 0.00 96 1009.7
20260506152914 7 0.0 0.0 0.00 0.00 0.00 97 1009.7
20260506151912 7 0.0 0.0 0.00 0.00 0.00 96 1009.7
20260506144913 7 0.0 0.0 0.00 0.00 0.00 97 1009.6
20260506142912 7 0.0 0.0 0.00 0.00 0.00 98 1009.4
20260506135913 7 0.0 0.0 0.00 0.00 0.00 10 1009.3
20260506134913 7 0.0 0.0 0.00 0.00 0.00 10 1009.4
20260506133914 7 0.0 0.0 0.00 0.00 0.00 10 1009.3
20260506132913 7 0.0 0.0 0.00 0.00 0.00 10 1009.3
20260506125914 7 0.0 0.0 0.00 0.00 0.00 10 1009.3
20260506124913 7 0.0 0.0 0.00 0.00 0.00 10 1009.2
20260506123913 7 0.0 0.0 0.00 0.00 0.00 10 1009.1
20260506122913 7 0.0 0.0 0.00 0.00 0.00 10 1009.1
20260506121913 7 0.0 0.0 0.00 0.00 0.00 10 1008.8
20260506120914 7 0.0 0.0 0.00 0.00 0.00 10 1008.6
20260506115914 7 0.0 0.0 0.00 0.00 0.00 10 1008.7
20260506114914 7 0.0 0.0 0.00 0.00 0.00 10 1008.5
20260506113913 7 0.0 0.0 0.00 0.00 0.00 10 1008.4
20260506112914 7 0.0 0.0 0.00 0.00 0.00 10 1008.3
20260506111914 7 0.0 0.0 0.00 0.00 0.00 10 1008.4
20260506110913 7 0.0 0.0 0.00 0.00 0.00 10 1008.3
20260506103914 7 0.0 0.0 0.00 0.00 0.00 10 1008.3
20260506102914 7 0.0 0.0 0.00 0.00 0.00 10 1008.2
20260506101913 7 0.0 0.0 0.00 0.00 0.00 10 1008.2
20260506095915 7 0.0 0.0 0.00 0.00 0.00 10 1008.2
20260506094913 7 0.0 0.0 0.00 0.00 0.00 10 1008.1
20260506092913 7 0.0 0.0 0.00 0.00 0.00 10 1008.2
20260506090914 7 0.0 0.0 0.00 0.00 0.00 10 1008.2
20260506085914 7 0.0 0.0 0.00 0.00 0.00 10 1008.1
20260506085814 7 0.0 0.0 0.00 0.00 0.00 10 1008.1
20260506084814 7 0.0 0.0 0.00 0.00 0.00 10 1008.2
20260506083814 7 0.0 0.0 0.00 0.00 0.00 10 1008.1
20260506082813 7 0.0 0.0 0.00 0.00 0.00 10 1008.1
20260506071913 7 0.0 0.0 0.00 0.00 0.00 10 1007.9
20260506070914 7 0.0 0.0 0.00 0.00 0.00 10 1007.8
20260506061912 7 0.0 0.0 0.00 0.00 0.00 10 1007.7